DW7262 La Rochelle FR current weather conditions

sailwx.info

Wind from 120 at 3 knots gusting 7

Air temperature 10.6° C
Dewpoint 6.5° C

Last reported at 2014-Dec-21 10:42 UTC.
Time now 2014-Dec-21 11:24 UTC

Location: N 45°57' W 001°22'.
View on Google Maps.

See reports from other nearby stations

  
Tides and Currents Weather Stations Pressure Air Temp Water Temp Dewpoint Dewpoint Depression Visibility Wind Speed Wind Dir Waves Ship Positions
date/time (UTC)wind fromknots sea level pressurealtimeterstation pressurevisibilityair tempwater tempwave heightnotes
2014-Dec-21 10:42 120 3 gusting 7 10.6
2014-Dec-21 10:19 205 3 gusting 8 10.6
2014-Dec-21 10:09 167 3 gusting 7 10.0
2014-Dec-21 09:35 135 1 gusting 5 10.0
2014-Dec-21 09:14 160 9.4
2014-Dec-21 09:03 120 0 gusting 3 9.4
2014-Dec-21 08:53 186 2 gusting 5 9.4
2014-Dec-21 08:31 145 8.3
2014-Dec-21 08:21 119 0 gusting 2 8.3
2014-Dec-21 08:11 115 7.8
2014-Dec-21 08:01 054 7.8
2014-Dec-21 07:38 148 7.8
2014-Dec-20 21:43 094 8.9
2014-Dec-20 21:22 095 8.9
2014-Dec-20 21:11 094 8.9
2014-Dec-20 20:37 072 8.9
2014-Dec-20 20:27 056 8.9
2014-Dec-20 19:41 056 8.9
2014-Dec-20 19:31 057 8.9
2014-Dec-20 19:21 343 9.4
2014-Dec-20 19:11 343 9.4
2014-Dec-20 19:01 343 9.4
2014-Dec-20 18:51 343 9.4
2014-Dec-20 18:41 018 9.4
2014-Dec-20 18:32 078 9.4
2014-Dec-20 18:21 040 9.4
2014-Dec-20 18:11 040 9.4
2014-Dec-20 18:01 040 8.9
2014-Dec-20 17:51 040 9.4
2014-Dec-20 17:41 040 9.4
2014-Dec-20 17:19 040 9.4
2014-Dec-20 17:08 040 9.4
2014-Dec-20 16:47 040 9.4
2014-Dec-20 16:37 040 9.4
2014-Dec-20 16:27 040 9.4
2014-Dec-20 16:16 040 9.4
2014-Dec-20 16:07 046 10.0
2014-Dec-20 15:56 021 10.0
2014-Dec-20 15:10 006 0 gusting 3 10.6
2014-Dec-20 14:48 009 0 gusting 2 10.6
2014-Dec-20 14:38 027 0 gusting 2 10.6
2014-Dec-20 14:28 038 0 gusting 4 10.6
2014-Dec-20 14:18 033 0 gusting 4 10.6
2014-Dec-20 14:09 338 1 gusting 3 10.6
2014-Dec-20 13:47 009 1 gusting 6 10.6
2014-Dec-20 13:36 038 1 gusting 4 10.6
2014-Dec-20 13:26 040 0 gusting 5 10.6
2014-Dec-20 13:16 037 1 gusting 5 10.6
2014-Dec-20 13:06 013 2 gusting 5 10.6
2014-Dec-20 12:57 011 2 gusting 5 10.6
2014-Dec-20 12:46 319 2 gusting 6 10.6
2014-Dec-20 12:37 016 2 gusting 6 10.6
2014-Dec-20 12:27 333 2 gusting 6 10.6
2014-Dec-20 12:17 061 2 gusting 4 10.6
2014-Dec-20 09:23 025 9.4
2014-Dec-20 09:13 057 9.4
2014-Dec-20 08:51 074 9.4
2014-Dec-20 08:41 050 9.4
2014-Dec-19 20:57 259 4 gusting 12 12.8
2014-Dec-19 20:48 275 5 gusting 12 12.8
2014-Dec-19 20:38 232 4 gusting 9 12.8
2014-Dec-19 20:28 274 4 gusting 9 12.8
2014-Dec-19 20:18 264 4 gusting 10 12.8
2014-Dec-19 19:07 281 6 gusting 15 12.8
2014-Dec-19 18:57 274 6 gusting 15 12.8
2014-Dec-19 18:10 278 6 gusting 12 12.8
2014-Dec-19 18:01 252 6 gusting 13 12.8
2014-Dec-19 17:27 245 6 gusting 13 12.8
2014-Dec-19 17:18 283 6 gusting 13 12.8
2014-Dec-19 16:43 281 6 gusting 17 12.8
2014-Dec-19 16:20 264 6 gusting 14 13.3
2014-Dec-19 15:47 248 7 gusting 15 13.3
2014-Dec-19 15:24 274 6 gusting 12 12.8
2014-Dec-19 15:14 242 6 gusting 14 12.8
2014-Dec-19 15:04 218 7 gusting 14 13.3
2014-Dec-19 14:43 284 6 gusting 12 13.3
2014-Dec-19 14:33 239 6 gusting 14 13.3
2014-Dec-19 14:23 274 6 gusting 14 13.3
2014-Dec-19 14:13 245 6 gusting 16 13.3
2014-Dec-19 14:03 277 7 gusting 16 12.8
2014-Dec-19 13:28 257 6 gusting 13 12.8
2014-Dec-19 13:19 247 6 gusting 11 13.3
2014-Dec-19 13:09 264 6 gusting 16 12.8
2014-Dec-19 12:58 269 7 gusting 16 12.8
2014-Dec-19 12:49 262 6 gusting 13 12.8
2014-Dec-19 12:39 247 6 gusting 11 12.8
2014-Dec-19 12:29 252 6 gusting 12 12.8
2014-Dec-19 12:18 266 5 gusting 13 12.8
2014-Dec-19 12:08 253 6 gusting 15 12.2
2014-Dec-19 11:34 293 7 gusting 15 12.8
2014-Dec-19 11:24 278 7 gusting 14 12.8